Location: Kitt Peak
(31.9639°N, 111.5992°W)
Time: 09:30:04
(UTC-07:00)

Amateur Radio Satellites - All Passes

Search period start: 21 January 2018 09:00
Search period end: 22 January 2018 09:00
Location: Kitt Peak, 31.9639°N, 111.5992°W

Satellite Date Start Highest point End Downlink Frequencies (MHz)
Time Altitude Azimuth
PCSat 21 Jan 09:08:55 09:13:51 38° 109° (ESE) 09:18:48 145.827
FO-29 21 Jan 09:11:00 09:16:18 23° 263° (W) 09:21:12 435.910
Oscar 11 21 Jan 09:14:29 09:18:37 48° 285° (WNW) 09:22:45 .
FALCONSAT 3 21 Jan 09:15:52 09:19:16 38° 206° (SSW) 09:22:40 435.103
BEESAT 2 21 Jan 09:19:58 09:21:58 14° 108° (ESE) 09:24:00 435.950
DELFI C3 21 Jan 09:27:03 09:30:36 33° 98° (E) 09:34:10 145.870
TIGRISAT 21 Jan 09:36:24 09:40:46 87° 260° (W) 09:45:16 435.000
JUGNU 21 Jan 09:43:16 09:47:04 18° 168° (SSE) 09:50:51 437.505
UNISAT 6 21 Jan 09:52:00 09:56:14 50° 261° (W) 10:00:36 437.425
PRISM 21 Jan 09:55:29 09:59:03 30° 72° (ENE) 10:02:37 437.425
Max Valier Satellite 21 Jan 10:00:17 10:03:56 59° 100° (E) 10:07:32 145.860
RS-15 21 Jan 10:05:19 10:16:08 35° 312° (NW) 10:26:56 29.354- 29.394
BEESAT 3 21 Jan 10:06:36 10:10:08 31° 303° (WNW) 10:13:42 437.485
O/OREOS (USA 219) 21 Jan 10:09:07 10:12:52 26° 65° (ENE) 10:16:36 437.305
AIST 2D 21 Jan 10:15:00 10:17:30 19° 72° (ENE) 10:20:01 435.315
EO-88 21 Jan 10:17:52 10:21:29 63° 101° (ESE) 10:25:02 145.990 - 145.960
QB50P2 21 Jan 10:40:02 10:42:18 14° 68° (ENE) 10:44:34 145.880/145.840
PCSat 21 Jan 10:52:58 10:57:17 24° 304° (NW) 11:01:37 145.827
YUBILEINY 21 Jan 10:53:38 11:02:22 86° 266° (W) 11:11:04 435.215
BEESAT 2 21 Jan 10:55:37 10:59:18 36° 302° (WNW) 11:03:03 435.950
DELFI C3 21 Jan 11:03:07 11:04:59 13° 291° (WNW) 11:06:52 145.870
AO-85 21 Jan 11:04:31 11:07:38 24° 110° (ESE) 11:10:53 145.980
DUCHIFAT 1 21 Jan 11:07:55 11:10:59 20° 70° (ENE) 11:14:03 145.980
EO-79 21 Jan 11:09:13 11:12:49 28° 72° (ENE) 11:16:27 145.935-145.965
JUGNU 21 Jan 11:30:50 11:35:27 24° 178° (S) 11:40:05 437.505
PRISM 21 Jan 11:31:59 11:34:19 15° 265° (W) 11:36:38 437.425
ESTCUBE 1 21 Jan 11:32:59 11:37:17 45° 100° (E) 11:41:33 437.505/2401.250
LO-87 21 Jan 11:35:23 11:39:00 71° 101° (E) 11:42:35 145.935 - 145.965
POLYITAN 1 21 Jan 11:43:39 11:47:52 79° 77° (ENE) 11:52:07 437.675
AIST 2D 21 Jan 11:48:06 11:50:31 17° 265° (W) 11:52:55 435.315
O/OREOS (USA 219) 21 Jan 11:48:41 11:52:05 22° 259° (WSW) 11:55:29 437.305
SRMSAT 21 Jan 11:53:45 11:56:33 13° 164° (SSE) 11:59:21 437.500
Oscar 19 21 Jan 11:54:35 11:55:53 11° 64° (ENE) 11:57:12 437.125/150
NANOSAT C BR1 21 Jan 11:58:46 12:02:57 76° 258° (WSW) 12:07:10 145.865
BUGSAT 1 21 Jan 12:07:05 12:10:03 20° 70° (ENE) 12:13:02 437.445
QB50P2 21 Jan 12:13:49 12:17:42 36° 262° (W) 12:21:38 145.880/145.840
RS-15 21 Jan 12:31:28 12:34:07 11° 344° (NNW) 12:36:44 29.354- 29.394
DUCHIFAT 1 21 Jan 12:42:58 12:46:25 25° 263° (W) 12:49:54 145.980
AO-85 21 Jan 12:44:56 12:47:56 21° 307° (NW) 12:51:05 145.980
EO-79 21 Jan 12:45:43 12:48:32 17° 265° (W) 12:51:23 145.935-145.965
YUBILEINY 21 Jan 12:54:49 12:57:46 12° 282° (WNW) 13:00:43 435.215
SPROUT 21 Jan 12:58:21 13:02:39 80° 284° (WNW) 13:06:56 437.525
VELOX 1 21 Jan 13:06:06 13:10:27 61° 101° (E) 13:14:48 145.980
ESTCUBE 1 21 Jan 13:11:35 13:13:37 13° 293° (WNW) 13:15:40 437.505/2401.250
AO-91 21 Jan 13:17:45 13:21:07 84° 261° (W) 13:24:31 145.960
JUGNU 21 Jan 13:19:30 13:23:53 22° 188° (S) 13:28:17 437.505
Gurwin Techsat 1B 21 Jan 13:20:18 13:25:33 66° 75° (ENE) 13:30:49 435.225
DX 1 21 Jan 13:21:59 13:24:16 14° 95° (E) 13:26:33 434.975-435.025
Oscar 19 21 Jan 13:29:20 13:34:30 74° 258° (WSW) 13:39:43 437.125/150
SRMSAT 21 Jan 13:40:32 13:45:07 23° 172° (S) 13:49:40 437.500
BUGSAT 1 21 Jan 13:41:56 13:45:12 23° 263° (W) 13:48:30 437.445
AO-7 21 Jan 14:15:23 14:22:58 41° 65° (ENE) 14:30:35 .
50 SAT 21 Jan 14:25:42 14:28:48 80° 283° (WNW) 14:31:53 437.505
SO-50 21 Jan 14:33:21 14:37:57 51° 59° (ENE) 14:42:37 436.795
ITAMSAT 1 21 Jan 14:38:26 14:42:22 22° 68° (ENE) 14:46:18 435.822/435.867
UKube-1 21 Jan 14:42:51 14:47:10 82° 102° (ESE) 14:51:28 .
ITUPSAT 1 21 Jan 14:44:59 14:45:09 10° 93° (E) 14:45:18 437.325
RS-15 21 Jan 14:49:29 14:54:52 14° 25° (NNE) 15:00:06 29.354- 29.394
DX 1 21 Jan 14:56:31 15:00:31 37° 287° (WNW) 15:04:31 434.975-435.025
Gurwin Techsat 1B 21 Jan 15:04:12 15:05:50 11° 268° (W) 15:07:29 435.225
MOZHAYETS 4 21 Jan 15:05:24 15:09:41 37° 98° (E) 15:13:56
JUGNU 21 Jan 15:09:45 15:12:15 13° 196° (SSW) 15:14:46 437.505
BEESAT 21 Jan 15:20:30 15:24:40 29° 98° (E) 15:28:48 436.000
SRMSAT 21 Jan 15:28:56 15:33:43 25° 183° (S) 15:38:31 437.500
M-CUBED/EXP-1 PRIME 21 Jan 15:38:14 15:41:42 23° 68° (ENE) 15:45:00 437.505
NO-84 21 Jan 15:45:14 15:48:02 25° 126° (SE) 15:50:41 435.350 FM
DOVE 4 21 Jan 16:02:17 16:06:10 33° 74° (ENE) 16:09:57 437.250
AO-7 21 Jan 16:08:01 16:15:35 38° 260° (W) 16:23:14 .
SO-50 21 Jan 16:15:38 16:17:58 14° 252° (WSW) 16:20:18 436.795
ITAMSAT 1 21 Jan 16:16:54 16:21:33 34° 261° (W) 16:26:14 435.822/435.867
ITUPSAT 1 21 Jan 16:18:30 16:23:16 62° 285° (WNW) 16:27:59 437.325
MOZHAYETS 4 21 Jan 16:43:35 16:46:29 17° 292° (WNW) 16:49:21
CUBESAT XI-V 21 Jan 16:47:16 16:51:50 64° 284° (WNW) 16:56:21 437.345
XW-2F 21 Jan 16:51:23 16:52:45 12° 69° (ENE) 16:54:07 145.980 - 146.000
BEESAT 21 Jan 16:58:31 17:02:12 23° 291° (WNW) 17:05:53 436.000
RS-15 21 Jan 17:00:06 17:11:17 49° 54° (NE) 17:21:51 29.354- 29.394
XW-2D 21 Jan 17:00:26 17:03:04 18° 71° (ENE) 17:05:41 145.860 - 145.880
M-CUBED/EXP-1 PRIME 21 Jan 17:12:15 17:15:53 25° 258° (WSW) 17:19:23 437.505
HO-68 21 Jan 17:16:58 17:21:50 20° 62° (ENE) 17:26:42 435.675
XW-2B 21 Jan 17:17:19 17:20:37 28° 73° (ENE) 17:23:55 145.730 - 145.750
SRMSAT 21 Jan 17:18:23 17:22:19 18° 193° (SSW) 17:26:16 437.500
NO-84 21 Jan 17:23:03 17:25:10 16° 317° (NW) 17:27:11 435.350 FM
DOVE 4 21 Jan 17:41:29 17:43:53 15° 265° (W) 17:46:15 437.250
LilacSat-2 21 Jan 17:45:58 17:49:49 83° 78° (ENE) 17:53:41 437.200
XW-2C 21 Jan 17:47:07 17:50:55 78° 78° (ENE) 17:54:45 145.795 - 145.815
CUTE-I 21 Jan 17:55:13 18:00:30 72° 75° (ENE) 18:05:47 437.470
PCSat 21 Jan 18:03:33 18:05:40 12° 50° (NE) 18:07:48 145.827
KKS-1 21 Jan 18:04:55 18:09:20 66° 285° (WNW) 18:13:45 437.445
STARS 21 Jan 18:18:20 18:22:42 61° 101° (ESE) 18:27:04 437.465
KAITUO 1B 21 Jan 18:19:27 18:23:08 54° 260° (W) 18:26:49 145.475/437.950
XW-2F 21 Jan 18:22:58 18:26:27 35° 262° (W) 18:29:58 145.980 - 146.000
SEEDS 21 Jan 18:25:18 18:28:57 29° 73° (ENE) 18:32:37 437.485
BEESAT 3 21 Jan 18:27:22 18:30:45 28° 57° (ENE) 18:34:05 437.485
NUDT-PHONESAT 21 Jan 18:28:55 18:32:28 42° 261° (W) 18:36:01 437.300
XW-2D 21 Jan 18:33:58 18:37:01 22° 264° (W) 18:40:04 145.860 - 145.880
CUTE 1.7 + AOD 2 21 Jan 18:38:56 18:43:12 82° 77° (ENE) 18:47:29 437.475
XW-2B 21 Jan 18:52:42 18:54:45 14° 266° (W) 18:56:49 145.730 - 145.750
CUBEBUG 2 21 Jan 19:00:16 19:04:35 88° 77° (ENE) 19:09:05 437.445
HO-68 21 Jan 19:01:48 19:08:53 66° 257° (WSW) 19:16:00 435.675
UWE-3 21 Jan 19:03:46 19:08:00 49° 74° (ENE) 19:12:21 435.000/436.395/437.385
RS-15 21 Jan 19:13:00 19:23:20 42° 253° (WSW) 19:33:17 29.354- 29.394
BEESAT 2 21 Jan 19:17:34 19:20:57 26° 56° (NE) 19:24:16 435.950
nSIGHT-1 21 Jan 19:24:56 19:27:58 47° 132° (SE) 19:31:01 .
ZACube-1 21 Jan 19:25:24 19:29:34 43° 74° (ENE) 19:33:51 437.345
AO-73 21 Jan 19:31:33 19:35:44 44° 74° (ENE) 19:40:02 145.935
AAUSAT CUBESAT 2 21 Jan 19:38:55 19:43:02 83° 256° (WSW) 19:47:11 437.432
CUTE-I 21 Jan 19:40:29 19:40:55 10° 268° (W) 19:41:23 437.470
ISS 21 Jan 19:41:54 19:45:01 47° 132° (SE) 19:48:10 437.550
PCSat 21 Jan 19:44:15 19:49:41 82° 247° (WSW) 19:55:05 145.827
SEEDS 21 Jan 20:01:52 20:04:36 17° 265° (W) 20:07:20 437.485
Oscar 11 21 Jan 20:03:42 20:07:59 65° 76° (ENE) 20:12:19 .
BEESAT 3 21 Jan 20:05:34 20:07:59 16° 251° (WSW) 20:10:22 437.485
STRAND 1 21 Jan 20:06:22 20:11:31 74° 283° (WNW) 20:16:37 437.568
XW-2A 21 Jan 20:08:16 20:11:21 32° 262° (W) 20:14:27 145.665 - 145.685
FO-29 21 Jan 20:23:48 20:28:55 61° 101° (E) 20:34:14 435.910
Max Valier Satellite 21 Jan 20:35:43 20:37:27 13° 70° (ENE) 20:39:12 145.860
UWE-3 21 Jan 20:43:31 20:44:41 11° 268° (W) 20:45:53 435.000/436.395/437.385
EO-88 21 Jan 20:52:06 20:53:48 13° 70° (ENE) 20:55:31 145.990 - 145.960
BEESAT 2 21 Jan 20:55:37 20:58:26 19° 250° (WSW) 21:01:13 435.950
nSIGHT-1 21 Jan 21:02:38 21:04:19 13° 327° (NNW) 21:05:59 .
ZACube-1 21 Jan 21:04:01 21:06:00 13° 268° (W) 21:08:00 437.345
AO-73 21 Jan 21:10:15 21:12:08 12° 268° (W) 21:14:02 145.935
AO-85 21 Jan 21:18:19 21:23:25 78° 62° (ENE) 21:28:45 145.980
ISS 21 Jan 21:19:47 21:21:40 14° 327° (NNW) 21:23:34 437.550
TIGRISAT 21 Jan 21:32:54 21:37:00 29° 97° (E) 21:41:03 435.000
DELFI C3 21 Jan 21:41:17 21:45:01 44° 261° (W) 21:48:46 145.870
UNISAT 6 21 Jan 21:48:07 21:52:41 49° 100° (E) 21:57:12 437.425
YUBILEINY 21 Jan 21:54:31 22:00:42 22° 83° (E) 22:06:52 435.215
Max Valier Satellite 21 Jan 22:07:38 22:10:56 30° 263° (W) 22:14:15 145.860
LO-87 21 Jan 22:08:00 22:09:40 13° 70° (ENE) 22:11:18 145.935 - 145.965
FO-29 21 Jan 22:11:41 22:13:30 12° 295° (WNW) 22:15:20 435.910
EO-88 21 Jan 22:23:56 22:27:07 28° 262° (W) 22:30:18 145.990 - 145.960
ESTCUBE 1 21 Jan 22:28:02 22:31:37 24° 71° (ENE) 22:35:12 437.505/2401.250
AO-85 21 Jan 23:02:33 23:03:19 10° 254° (WSW) 23:04:04 145.980
TIGRISAT 21 Jan 23:09:53 23:13:27 22° 290° (WNW) 23:16:59 435.000
PRISM 21 Jan 23:15:43 23:19:47 78° 282° (WNW) 23:23:52 437.425
AIST 2D 21 Jan 23:16:16 23:19:34 42° 99° (E) 23:22:50 435.315
UNISAT 6 21 Jan 23:26:38 23:28:52 13° 293° (WNW) 23:31:07 437.425
POLYITAN 1 21 Jan 23:34:06 23:37:07 19° 95° (E) 23:40:07 437.675
LO-87 21 Jan 23:39:43 23:42:44 26° 263° (W) 23:45:47 145.935 - 145.965
SPROUT 21 Jan 23:46:33 23:50:27 38° 74° (ENE) 23:54:25 437.525
YUBILEINY 21 Jan 23:47:55 23:56:39 65° 278° (W) 00:05:24 435.215
NANOSAT C BR1 21 Jan 23:48:14 23:51:42 24° 97° (E) 23:55:08 145.865
NO-84 21 Jan 23:58:26 00:00:31 18° 43° (NE) 00:02:40 435.350 FM
VELOX 1 21 Jan 23:58:41 00:02:26 28° 72° (ENE) 00:06:10 145.980
QB50P2 22 Jan 00:02:57 00:07:06 49° 100° (E) 00:11:13 145.880/145.840
ESTCUBE 1 22 Jan 00:04:33 00:08:15 25° 263° (W) 00:11:58 437.505/2401.250
O/OREOS (USA 219) 22 Jan 00:15:45 00:20:15 77° 107° (ESE) 00:24:45 437.305
DUCHIFAT 1 22 Jan 00:30:36 00:34:50 71° 101° (ESE) 00:39:03 145.980
EO-79 22 Jan 00:33:20 00:37:36 76° 283° (WNW) 00:41:51 145.935-145.965
POLYITAN 1 22 Jan 01:09:12 01:12:50 28° 288° (WNW) 01:16:27 437.675
AO-91 22 Jan 01:10:36 01:14:45 30° 98° (E) 01:19:12 145.960
NANOSAT C BR1 22 Jan 01:23:58 01:27:12 21° 290° (WNW) 01:30:26 145.865
SPROUT 22 Jan 01:24:32 01:26:26 13° 266° (W) 01:28:22 437.525
BUGSAT 1 22 Jan 01:27:12 01:31:26 68° 101° (ESE) 01:35:37 437.445
UKube-1 22 Jan 01:32:24 01:36:18 35° 73° (ENE) 01:40:12 .
NO-84 22 Jan 01:35:19 01:37:35 20° 234° (SW) 01:39:56 435.350 FM
VELOX 1 22 Jan 01:35:42 01:38:49 19° 264° (W) 01:41:55 145.980
QB50P2 22 Jan 01:41:12 01:42:23 11° 293° (WNW) 01:43:33 145.880/145.840
Gurwin Techsat 1B 22 Jan 01:41:41 01:46:38 38° 99° (E) 01:51:32 435.225
Oscar 19 22 Jan 01:45:54 01:50:59 59° 101° (E) 01:56:02 437.125/150
DX 1 22 Jan 01:46:27 01:50:46 85° 254° (WSW) 01:55:06 434.975-435.025
MOZHAYETS 4 22 Jan 02:02:57 02:06:24 21° 70° (ENE) 02:09:51
FALCONSAT 3 22 Jan 02:06:03 02:08:40 18° 148° (SSE) 02:11:17 435.103
50 SAT 22 Jan 02:17:01 02:19:33 24° 262° (W) 02:22:07 437.505
BEESAT 22 Jan 02:22:40 02:26:07 20° 68° (ENE) 02:29:34 436.000
AO-7 22 Jan 02:24:34 02:29:08 16° 94° (E) 02:33:40 .
AO-91 22 Jan 02:47:18 02:51:00 24° 288° (WNW) 02:54:57 145.960
ITAMSAT 1 22 Jan 02:58:07 02:59:23 11° 93° (E) 03:00:39 435.822/435.867
UKube-1 22 Jan 03:09:58 03:12:22 15° 265° (W) 03:14:46 .
ITUPSAT 1 22 Jan 03:19:58 03:24:44 87° 72° (ENE) 03:29:32 437.325
Gurwin Techsat 1B 22 Jan 03:22:21 03:26:15 21° 292° (WNW) 03:30:08 435.225
Oscar 19 22 Jan 03:27:18 03:29:44 13° 295° (WNW) 03:32:08 437.125/150
nSIGHT-1 22 Jan 03:31:05 03:34:15 66° 44° (NE) 03:37:23 .
MOZHAYETS 4 22 Jan 03:39:18 03:43:18 29° 263° (W) 03:47:20
FALCONSAT 3 22 Jan 03:43:45 03:47:25 80° 161° (SSE) 03:51:06 435.103
CUBESAT XI-V 22 Jan 03:45:05 03:49:45 70° 76° (ENE) 03:54:24 437.345
ISS 22 Jan 03:49:39 03:52:54 68° 44° (NE) 03:56:08 437.550
BEESAT 22 Jan 03:59:21 04:03:36 32° 262° (W) 04:07:53 436.000
DOVE 4 22 Jan 04:06:16 04:08:35 14° 95° (E) 04:10:57 437.250
AO-7 22 Jan 04:14:10 04:22:34 84° 289° (WNW) 04:30:54 .
ITAMSAT 1 22 Jan 04:34:01 04:39:10 67° 285° (WNW) 04:44:20 435.822/435.867
SO-50 22 Jan 04:42:53 04:47:09 50° 114° (ESE) 04:51:29 436.795
M-CUBED/EXP-1 PRIME 22 Jan 04:54:57 04:57:43 25° 102° (ESE) 05:00:28 437.505
KKS-1 22 Jan 04:57:45 05:02:05 59° 74° (ENE) 05:06:25 437.445
STARS 22 Jan 05:10:18 05:14:01 28° 72° (ENE) 05:17:46 437.465
FALCONSAT 3 22 Jan 05:23:03 05:26:37 48° 356° (N) 05:30:11 435.103
LilacSat-2 22 Jan 05:25:47 05:27:18 12° 94° (E) 05:28:48 437.200
XW-2C 22 Jan 05:26:37 05:27:39 11° 93° (E) 05:28:41 145.795 - 145.815
DOVE 4 22 Jan 05:42:07 05:46:19 42° 285° (WNW) 05:50:44 437.250
KAITUO 1B 22 Jan 05:55:46 05:58:24 19° 96° (E) 06:01:01 145.475/437.950
XW-2F 22 Jan 05:59:30 06:02:46 29° 98° (E) 06:06:01 145.980 - 146.000
NUDT-PHONESAT 22 Jan 06:03:51 06:06:44 22° 96° (E) 06:09:37 437.300
AO-7 22 Jan 06:09:44 06:14:04 15° 305° (NW) 06:18:25 .
XW-2D 22 Jan 06:10:11 06:13:49 48° 100° (E) 06:17:25 145.860 - 145.880
CUTE-I 22 Jan 06:17:18 06:22:21 43° 99° (E) 06:27:23 437.470
SO-50 22 Jan 06:25:25 06:27:52 14° 310° (NW) 06:30:21 436.795
XW-2B 22 Jan 06:27:45 06:31:30 85° 102° (ESE) 06:35:13 145.730 - 145.750
CUTE 1.7 + AOD 2 22 Jan 06:29:25 06:32:29 19° 95° (E) 06:35:31 437.475
M-CUBED/EXP-1 PRIME 22 Jan 06:30:55 06:31:50 11° 296° (WNW) 06:32:46 437.505
FO-29 22 Jan 06:32:22 06:36:34 18° 67° (ENE) 06:40:31 435.910
HO-68 22 Jan 06:35:19 06:41:35 32° 98° (E) 06:47:49 435.675
STARS 22 Jan 06:47:16 06:50:18 19° 264° (W) 06:53:22 437.465
CUBEBUG 2 22 Jan 06:56:05 07:00:10 28° 96° (E) 07:04:12 437.445
LilacSat-2 22 Jan 06:58:15 07:01:35 31° 287° (WNW) 07:04:55 437.200
XW-2C 22 Jan 06:58:30 07:01:53 33° 286° (WNW) 07:05:15 145.795 - 145.815
UWE-3 22 Jan 06:59:22 07:02:11 16° 93° (E) 07:04:57 435.000/436.395/437.385
FALCONSAT 3 22 Jan 07:02:19 07:05:57 61° 11° (N) 07:09:34 435.103
RS-15 22 Jan 07:15:26 07:27:03 51° 109° (ESE) 07:38:38 29.354- 29.394
STRAND 1 22 Jan 07:17:11 07:22:16 87° 258° (WSW) 07:27:23 437.568
ZACube-1 22 Jan 07:20:22 07:22:20 13° 92° (E) 07:24:19 437.345
AO-73 22 Jan 07:26:10 07:28:09 13° 92° (E) 07:30:07 145.935
AAUSAT CUBESAT 2 22 Jan 07:26:19 07:29:26 21° 96° (E) 07:32:32 437.432
KAITUO 1B 22 Jan 07:29:33 07:32:13 19° 288° (WNW) 07:34:52 145.475/437.950
XW-2A 22 Jan 07:34:42 07:37:03 18° 96° (E) 07:39:22 145.665 - 145.685
XW-2F 22 Jan 07:34:48 07:36:33 13° 290° (WNW) 07:38:17 145.980 - 146.000
NUDT-PHONESAT 22 Jan 07:38:02 07:40:20 16° 289° (WNW) 07:42:38 437.300
SEEDS 22 Jan 07:48:34 07:52:42 70° 283° (WNW) 07:56:49 437.485
Oscar 11 22 Jan 07:56:48 07:59:40 17° 95° (E) 08:02:30 .
CUTE-I 22 Jan 07:58:20 08:02:01 19° 293° (WNW) 08:05:42 437.470
CUTE 1.7 + AOD 2 22 Jan 08:04:47 08:08:13 25° 288° (WNW) 08:11:38 437.475
BEESAT 3 22 Jan 08:12:53 08:15:14 15° 109° (ESE) 08:17:36 437.485
FO-29 22 Jan 08:14:12 08:21:13 65° 258° (WSW) 08:27:24 435.910
HO-68 22 Jan 08:22:44 08:29:14 39° 292° (WNW) 08:35:44 435.675
TIGRISAT 22 Jan 08:28:09 08:30:28 14° 67° (ENE) 08:32:48 435.000
CUBEBUG 2 22 Jan 08:32:51 08:36:33 23° 290° (WNW) 08:40:13 437.445
UWE-3 22 Jan 08:34:24 08:38:42 38° 287° (WNW) 08:42:55 435.000/436.395/437.385
PCSat 22 Jan 08:38:39 08:43:03 26° 107° (ESE) 08:47:29 145.827
FALCONSAT 3 22 Jan 08:41:30 08:44:58 41° 205° (SSW) 08:48:25 435.103
UNISAT 6 22 Jan 08:42:33 08:46:02 23° 70° (ENE) 08:49:35 437.425
